[[{"header":{"parameterUnit":"m.s-1","parameterCategory":1,"la1":30.2991,"la2":30.254,"lo1":-89.0895,"lo2":-89.0444,"dy":0.0017,"dx":0.0017,"nx":28,"ny":28,"refTime":"2024-08-24T09:00:00:Z","depth":0,"parameterNumber":2,"parameterNumberName":"U-component_of_WINDS"},"data":[0,0,0,0,0,0,0,0,0,0,0,0,0,0,0,0,0,0,0,0,0,0,0,0,0,0,0,0,0,0,0,0,0,0,0,0,0,0,0,0,0,0,0,0,0,0,0,0,0,0,0,0,0,0,0,0,0,0,-3.6902,-3.6902,0,-3.6951,-3.6952,-3.6952,-3.6828,-3.6824,-3.682,-3.6816,-3.6868,-3.6873,-3.6878,0,0,0,0,0,0,0,0,0,0,0,0,0,-3.6699,-3.6703,-3.6901,-3.6902,-3.6903,-3.6951,-3.6952,-3.6952,-3.6828,-3.6823,-3.6819,-3.6814,-3.6866,-3.6872,-3.6878,0,0,0,0,0,0,0,0,0,0,0,0,0,-3.6772,-3.6705,-3.6901,-3.6847,-3.6842,-3.6951,-3.6952,-3.6953,-3.6829,-3.6823,-3.6817,-3.6812,-3.6864,-3.6871,-3.6879,-3.7044,0,0,-3.6902,-3.6905,0,0,0,0,0,0,0,0,-3.6768,-3.6779,-3.6854,-3.6851,-3.6846,-3.6877,-3.6899,-3.6983,-3.6831,-3.6834,-3.6816,-3.6809,-3.6876,-3.6882,-3.6904,-3.7046,-3.7048,-3.6903,-3.6907,-3.6911,-3.6913,0,0,0,0,0,0,0,-3.6763,-3.6776,-3.6921,-3.6855,-3.685,-3.6819,-3.6823,-3.6915,-3.6887,-3.6833,-3.6824,-3.6832,-3.6872,-3.6897,-3.6905,-3.7049,-3.6903,-3.6909,-3.6914,-3.6917,-3.7326,-3.7332,0,0,0,0,0,0,-3.6765,-3.6773,-3.6919,-3.6923,-3.6791,-3.6828,-3.6832,-3.6873,-3.6886,-3.6882,-3.6837,-3.6826,-3.6887,-3.6896,-3.6906,-3.7097,-3.691,-3.6918,-3.6922,-3.732,-3.7328,-3.7334,0,0,0,0,0,0,-3.6761,-3.6779,-3.6917,-3.6845,-3.6861,-3.6838,-3.6885,-3.6877,-3.6902,-3.6889,-3.6883,-3.6867,-3.6883,-3.6895,-3.701,-3.7098,-3.6921,-3.6928,-3.7312,-3.7322,-3.7331,-3.7484,0,0,0,0,0,0,-3.6756,-3.6778,-3.6841,-3.6848,-3.6865,-3.7021,-3.689,-3.6882,-3.6915,-3.6901,-3.6916,-3.6913,-3.6879,-3.6999,-3.7017,-3.7105,-3.6934,-3.7304,-3.7317,-3.7328,-3.7471,-3.7497,-3.752,0,0,0,0,0,-3.6749,-3.6882,-3.6845,-3.6863,-3.6942,-3.7026,-3.7036,-3.6995,-3.6923,-3.6985,-3.6976,-3.6912,-3.7086,-3.7012,-3.7031,-3.7123,-3.7299,-3.7313,-3.7327,-3.746,-3.7492,-3.7519,0,0,0,0,0,0,-3.6887,-3.6882,-3.684,-3.698,-3.7005,-3.7005,-3.7082,-3.7031,-3.7076,-3.7061,-3.7008,-3.7013,-3.7137,-3.7141,-3.7059,-3.7282,-3.718,-3.7199,-3.7274,-3.7305,-3.7329,-3.7324,-3.694,0,0,0,0,0,-3.6933,-3.7002,-3.6994,-3.7118,-3.7132,-3.7106,-3.7141,-3.7107,-3.713,-3.714,-3.7139,-3.7165,-3.7224,-3.7265,-3.732,-3.7471,-3.7472,-3.7544,-3.7568,-3.7589,-3.7605,-3.7684,-3.7715,-3.7381,-3.7381,-3.7381,0,0,-3.703,-3.7036,-3.7083,-3.7146,-3.7161,-3.7232,-3.7115,-3.7196,-3.7249,-3.7152,-3.7259,-3.7261,-3.7285,-3.7419,-3.7477,-3.7426,-3.7698,-3.7607,-3.7623,-3.7628,-3.7702,-3.7733,-3.7762,-3.7391,-3.7389,-3.7388,0,0,-3.7243,-3.7255,-3.7359,-3.7376,-3.74,-3.7381,-3.7406,-3.7415,-3.7412,-3.7519,-3.7447,-3.7509,-3.7614,-3.7634,-3.7658,-3.7878,-3.782,-3.7898,-3.8026,-3.8103,-3.8129,-3.8152,-3.8229,-3.8258,-3.7914,-3.7915,-3.7915,0,-3.736,-3.7465,-3.7419,-3.7504,-3.7534,-3.7449,-3.7553,-3.7573,-3.7614,-3.7636,-3.7578,-3.7707,-3.7718,-3.7853,-3.7907,-3.793,-3.7956,-3.7895,-3.8129,-3.8152,-3.8173,-3.8245,-3.8275,-3.7924,-3.7923,-3.7922,-3.7921,0,-3.7607,-3.7681,-3.7762,-3.7803,-3.7841,-3.7936,-3.7904,-3.7949,-3.7912,-3.7899,-3.8009,-3.8019,-3.8073,-3.8104,-3.8069,-3.8235,-3.8202,-3.8138,-3.8034,-3.8215,-3.8282,-3.8309,-3.7937,-3.7933,-3.7931,-3.7928,0,0,-3.7907,-3.792,-3.7951,-3.7967,-3.7988,-3.8044,-3.8135,-3.8187,-3.8226,-3.8258,-3.8332,-3.8422,-3.8363,-3.839,-3.8357,-3.8425,-3.8597,-3.8352,-3.8352,-3.8396,-3.8779,-3.8825,-3.8858,-3.8559,-3.8565,-3.8569,-3.8776,0,-3.8115,-3.827,-3.8231,-3.8384,-3.8451,-3.8373,-3.8451,-3.8472,-3.8463,-3.8519,-3.8509,-3.8573,-3.8491,-3.8506,-3.8571,-3.8563,-3.8673,-3.8547,-3.8627,-3.863,-3.8621,-3.8894,-3.8943,-3.9138,-3.8802,-3.8807,-3.881,0,-3.8378,-3.8419,-3.8579,-3.8587,-3.8614,-3.8685,-3.873,-3.8784,-3.8806,-3.8795,-3.8826,-3.8779,-3.8868,-3.8765,-3.8887,-3.8802,-3.8833,-3.8834,-3.884,-3.8844,-3.8729,-3.8903,-3.92,-3.9228,-3.8851,-3.8848,-3.8845,0,-3.8578,-3.8673,-3.878,-3.8798,-3.8811,-3.8862,-3.887,-3.8886,-3.892,-3.896,-3.8981,-3.9031,-3.9058,-3.9098,-3.9065,-3.8994,-3.9192,-3.9087,-3.9184,-3.9185,-3.9227,-3.9225,-3.9531,-3.9251,-3.9251,-3.925,-3.9249,0,-3.8813,-3.8914,-3.887,-3.8936,-3.9047,-3.9001,-3.9112,-3.911,-3.9126,-3.919,-3.9126,-3.9187,-3.9142,-3.92,-3.9175,-3.9279,-3.9292,-3.9285,-3.9276,-3.9289,-3.929,-3.9307,-3.9292,-3.9258,-3.9256,-3.9255,-3.9253,0,-3.9054,-3.9029,-3.9141,-3.9144,-3.9147,-3.9228,-3.923,-3.9291,-3.9278,-3.936,-3.9377,-3.9355,-3.942,-3.9392,-3.9461,-3.9444,-3.9577,-3.9552,-3.9569,-3.9562,-3.966,-3.965,-3.9986,-4.0027,-3.9723,-3.9726,-3.9728,0,-3.9205,-3.928,-3.9291,-3.9329,-3.9341,-3.9404,-3.9438,-3.9396,-3.9434,-3.9465,-3.9522,-3.9582,-3.9626,-3.9734,-3.9724,-3.9776,-3.9751,-3.9865,-3.9758,-3.9768,-3.975,-3.9745,-3.9752,-3.9886,-3.9889,-3.9892,-3.9894,0,-3.9474,-3.9458,-3.9509,-3.9557,-3.9599,-3.9634,-3.9664,-3.9699,-3.9659,-3.9705,-3.977,-3.9805,-3.9874,-3.9933,-3.9979,-3.9987,-3.9934,-3.9928,-3.9953,-3.9966,-3.9972,-3.9968,-3.9625,-3.992,-3.9918,-3.9916,-3.9914,-3.9913,-3.9673,-3.9736,-3.9753,-3.9812,-3.983,-3.9859,-3.9916,-3.991,-3.9963,-4.0016,-3.9988,-4.0064,-4.0083,-4.0139,-4.0155,-4.0213,-4.0168,-4.0205,-4.0213,-4.0223,-4.0234,-3.9965,-4.0221,-4.0221,-4.022,-4.0219,-4.0219,0,-3.9937,-3.9944,-3.9999,-4.0042,-4.0089,-4.0035,-4.0065,-4.0108,-4.0175,-4.0198,-4.0243,-4.0317,-4.0374,-4.037,-4.0422,-4.047,-4.0447,-4.0485,-4.048,-4.0482,-4.0273,-4.0245,-4.0502,-4.0502,-4.0502,-4.0502,-4.0502,-4.0502,-4.008,-4.0182,-4.0168,-4.0279,-4.0286,-4.0358,-4.038,-4.0407,-4.0424,-4.051,-4.0557,-4.0553,-4.0565,-4.0618,-4.0668,-4.0665,-4.0686,-4.0733,-4.0721,-4.0525,-4.0497,-4.047,-4.0444,-4.0739,-4.0739,-4.0925,-4.0927,-4.0928]},{"header":{"parameterUnit":"m.s-1","parameterCategory":1,"la1":30.2991,"la2":30.254,"lo1":-89.0895,"lo2":-89.0444,"dy":0.0017,"dx":0.0017,"nx":28,"ny":28,"refTime":"2024-08-24T09:00:00:Z","depth":0,"parameterNumber":3,"parameterNumberName":"V-component_of_WINDS"},"data":[0,0,0,0,0,0,0,0,0,0,0,0,0,0,0,0,0,0,0,0,0,0,0,0,0,0,0,0,0,0,0,0,0,0,0,0,0,0,0,0,0,0,0,0,0,0,0,0,0,0,0,0,0,0,0,0,0,0,-0.3686,-0.3686,0,-0.3702,-0.3702,-0.3702,-0.3743,-0.3744,-0.3745,-0.3746,-0.3761,-0.3761,-0.376,0,0,0,0,0,0,0,0,0,0,0,0,0,-0.3688,-0.3688,-0.3686,-0.3686,-0.3686,-0.3702,-0.3702,-0.3702,-0.3743,-0.3744,-0.3745,-0.3746,-0.3761,-0.3761,-0.376,0,0,0,0,0,0,0,0,0,0,0,0,0,-0.3694,-0.3688,-0.3685,-0.3708,-0.371,-0.3701,-0.3702,-0.3702,-0.3743,-0.3744,-0.3745,-0.3746,-0.3761,-0.3761,-0.376,-0.373,0,0,-0.3758,-0.3758,0,0,0,0,0,0,0,0,-0.3694,-0.3694,-0.3705,-0.3707,-0.3709,-0.3722,-0.3709,-0.3711,-0.3742,-0.373,-0.3746,-0.3747,-0.3747,-0.3747,-0.3748,-0.3731,-0.3731,-0.3758,-0.3758,-0.3758,-0.3757,0,0,0,0,0,0,0,-0.3693,-0.3693,-0.3692,-0.3705,-0.3707,-0.3717,-0.3719,-0.3709,-0.3731,-0.3731,-0.3735,-0.3736,-0.3748,-0.3748,-0.3748,-0.3732,-0.3758,-0.3758,-0.3757,-0.3757,-0.369,-0.3688,0,0,0,0,0,0,-0.369,-0.3693,-0.3691,-0.3692,-0.3704,-0.3716,-0.3718,-0.3716,-0.3731,-0.3735,-0.3735,-0.3738,-0.3748,-0.3749,-0.3749,-0.3714,-0.3758,-0.3757,-0.3757,-0.3691,-0.3689,-0.3688,0,0,0,0,0,0,-0.369,-0.3689,-0.3691,-0.3693,-0.3694,-0.3714,-0.3712,-0.3716,-0.3716,-0.3734,-0.3738,-0.3731,-0.3749,-0.375,-0.3734,-0.3715,-0.3757,-0.3756,-0.3693,-0.369,-0.3688,-0.3644,0,0,0,0,0,0,-0.369,-0.3689,-0.3678,-0.3693,-0.3694,-0.3676,-0.3711,-0.3715,-0.3715,-0.3719,-0.3731,-0.3734,-0.375,-0.3735,-0.3734,-0.3715,-0.3756,-0.3694,-0.3692,-0.3689,-0.3647,-0.364,-0.3634,0,0,0,0,0,-0.369,-0.3665,-0.3678,-0.3677,-0.3681,-0.3675,-0.3676,-0.3695,-0.3713,-0.3702,-0.3713,-0.3734,-0.3717,-0.3733,-0.3732,-0.3712,-0.3696,-0.3692,-0.3689,-0.365,-0.3641,-0.3635,0,0,0,0,0,0,-0.3648,-0.3667,-0.3682,-0.3661,-0.3666,-0.3682,-0.3669,-0.3686,-0.3686,-0.369,-0.3714,-0.3716,-0.3697,-0.3703,-0.372,-0.3683,-0.371,-0.3706,-0.368,-0.3672,-0.3666,-0.3665,-0.3755,0,0,0,0,0,-0.3636,-0.363,-0.3647,-0.3628,-0.3629,-0.3648,-0.3647,-0.3661,-0.3667,-0.3669,-0.368,-0.3684,-0.368,-0.3677,-0.3674,-0.3648,-0.3651,-0.3634,-0.3628,-0.3623,-0.3619,-0.3605,-0.3597,-0.3677,-0.3677,-0.3677,0,0,-0.3612,-0.3622,-0.3617,-0.3619,-0.3625,-0.3617,-0.365,-0.3641,-0.3635,-0.3668,-0.3653,-0.3661,-0.3668,-0.3646,-0.3638,-0.3651,-0.3598,-0.3619,-0.3614,-0.3614,-0.3601,-0.3593,-0.3586,-0.3675,-0.3675,-0.3676,0,0,-0.3564,-0.3571,-0.3555,-0.356,-0.3568,-0.3581,-0.3576,-0.359,-0.3596,-0.3582,-0.3606,-0.3599,-0.3592,-0.3595,-0.3596,-0.3548,-0.3566,-0.3546,-0.3513,-0.3499,-0.3493,-0.3487,-0.3469,-0.3462,-0.3543,-0.3542,-0.3542,0,-0.3533,-0.3523,-0.3545,-0.3533,-0.3533,-0.3563,-0.3546,-0.3549,-0.3556,-0.3555,-0.357,-0.356,-0.3567,-0.3546,-0.3534,-0.3534,-0.353,-0.3545,-0.3492,-0.3487,-0.3482,-0.3464,-0.3458,-0.354,-0.354,-0.354,-0.3541,0,-0.3484,-0.3476,-0.3462,-0.3467,-0.3466,-0.3452,-0.347,-0.3466,-0.3481,-0.3491,-0.3476,-0.3485,-0.3484,-0.348,-0.3494,-0.3461,-0.3469,-0.3488,-0.3514,-0.3471,-0.3455,-0.3449,-0.3536,-0.3537,-0.3538,-0.3539,0,0,-0.341,-0.3427,-0.3421,-0.3423,-0.3434,-0.3428,-0.3415,-0.3414,-0.3409,-0.3412,-0.3401,-0.3393,-0.341,-0.3411,-0.3426,-0.3413,-0.3373,-0.3433,-0.3434,-0.3421,-0.3335,-0.3321,-0.3313,-0.3385,-0.3384,-0.3383,-0.3334,0,-0.3364,-0.3343,-0.3361,-0.3336,-0.3329,-0.3356,-0.3344,-0.3349,-0.3358,-0.3353,-0.3363,-0.3357,-0.3381,-0.3381,-0.337,-0.338,-0.3356,-0.3384,-0.3374,-0.3374,-0.3371,-0.3305,-0.3289,-0.3243,-0.3329,-0.3327,-0.3327,0,-0.3307,-0.3307,-0.3281,-0.3292,-0.329,-0.3279,-0.3279,-0.3274,-0.3279,-0.3287,-0.3287,-0.3305,-0.3292,-0.3318,-0.33,-0.3319,-0.3316,-0.332,-0.3319,-0.3318,-0.3347,-0.3301,-0.3228,-0.3221,-0.3317,-0.3318,-0.3319,0,-0.3254,-0.3248,-0.3232,-0.3233,-0.3246,-0.3237,-0.3242,-0.3249,-0.3246,-0.3246,-0.3245,-0.3243,-0.3242,-0.324,-0.3256,-0.3274,-0.3235,-0.3263,-0.324,-0.324,-0.323,-0.323,-0.3155,-0.323,-0.323,-0.323,-0.323,0,-0.32,-0.3183,-0.3208,-0.3198,-0.3179,-0.32,-0.3181,-0.3188,-0.3194,-0.3185,-0.3209,-0.3199,-0.3222,-0.3215,-0.3228,-0.321,-0.321,-0.3215,-0.3218,-0.3212,-0.3211,-0.321,-0.3213,-0.3228,-0.3229,-0.3229,-0.3229,0,-0.3138,-0.3154,-0.3138,-0.3151,-0.3154,-0.3139,-0.315,-0.314,-0.3151,-0.3139,-0.3138,-0.3155,-0.3148,-0.3164,-0.3159,-0.3168,-0.3142,-0.3151,-0.314,-0.3142,-0.3118,-0.3119,-0.3038,-0.3028,-0.311,-0.3109,-0.3109,0,-0.3102,-0.3089,-0.3101,-0.3097,-0.31,-0.3093,-0.3091,-0.3111,-0.3108,-0.3112,-0.3102,-0.3097,-0.3093,-0.3081,-0.3092,-0.3088,-0.3097,-0.3069,-0.3096,-0.309,-0.3095,-0.3095,-0.3093,-0.3062,-0.3061,-0.3061,-0.306,0,-0.3036,-0.3044,-0.304,-0.3039,-0.3035,-0.3035,-0.3036,-0.3031,-0.3053,-0.3047,-0.304,-0.3038,-0.3033,-0.3027,-0.3026,-0.303,-0.3048,-0.3051,-0.3045,-0.3039,-0.3032,-0.3034,-0.3123,-0.3053,-0.3054,-0.3054,-0.3054,-0.3055,-0.2985,-0.2975,-0.2981,-0.2975,-0.2978,-0.2978,-0.297,-0.2979,-0.2974,-0.2972,-0.2984,-0.2974,-0.2978,-0.2978,-0.2981,-0.2973,-0.2985,-0.2977,-0.2975,-0.2972,-0.2968,-0.3034,-0.2973,-0.2973,-0.2973,-0.2973,-0.2973,0,-0.2919,-0.2924,-0.2919,-0.292,-0.2915,-0.2933,-0.2935,-0.293,-0.2921,-0.2924,-0.292,-0.2911,-0.2905,-0.2916,-0.2912,-0.2903,-0.2911,-0.2901,-0.2901,-0.2902,-0.2957,-0.2962,-0.2895,-0.2895,-0.2895,-0.2895,-0.2895,-0.2895,-0.2884,-0.2867,-0.2876,-0.286,-0.2865,-0.2856,-0.2855,-0.2855,-0.2858,-0.2847,-0.2842,-0.2849,-0.2855,-0.2851,-0.2846,-0.2849,-0.2846,-0.2833,-0.2839,-0.2891,-0.2898,-0.2905,-0.291,-0.2833,-0.2832,-0.2784,-0.2784,-0.2783]}]]